EW9427 Weather Reports


Display with metric or nautical units.
time (UTC)temp
F
wind
direction
speed
MPH
gust
MPH
rain 1hr
in
rain 24hr
in
rain mn
in
humidity
%
barometer
mb
20260903160018 53 360 2.0 4.0 0.00 0.06 0.00 79 1009.4
20260903154513 52 320 1.0 3.0 0.00 0.06 0.00 83 1009.4
20260903153011 51 319 2.0 3.0 0.00 0.06 0.00 84 1009.6
20260903151510 50 320 0.0 2.0 0.00 0.06 0.00 85 1009.5
20260903150010 49 320 0.0 2.0 0.00 0.06 0.00 88 1009.6
20260903144508 48 319 0.0 2.0 0.00 0.06 0.00 90 1009.6
20260903143007 47 320 0.0 2.0 0.00 0.06 0.00 92 1009.5
20260903141505 45 319 0.0 2.0 0.00 0.06 0.00 92 1009.4
20260903140001 44 320 3.0 4.0 0.00 0.06 0.00 92 1009.2
20260903134557 42 225 2.0 3.0 0.00 0.06 0.00 92 1009.0
20260903133054 40 225 0.0 1.0 0.00 0.06 0.00 91 1008.9
20260903131551 40 225 2.0 3.0 0.00 0.06 0.00 91 1008.8
20260903130049 40 225 2.0 3.0 0.00 0.06 0.00 91 1008.5
20260903124600 38 225 0.0 3.0 0.00 0.06 0.00 90 1008.4
20260903123045 39 225 1.0 3.0 0.00 0.06 0.00 91 1008.1
20260903121548 39 225 1.0 3.0 0.00 0.06 0.00 90 1008.3
20260903120045 39 225 2.0 4.0 0.00 0.06 0.00 91 1008.0
20260903114556 39 225 0.0 3.0 0.00 0.06 0.00 89 1008.2
20260903113040 41 225 0.0 3.0 0.00 0.06 0.00 91 1008.4
20260903111540 40 225 0.0 2.0 0.00 0.06 0.00 91 1008.3
20260903110043 40 225 0.0 0.0 0.00 0.06 0.00 90 1008.4
20260903104537 40 225 0.0 2.0 0.00 0.06 0.00 90 1008.5
20260903103044 40 225 0.0 5.0 0.00 0.06 0.00 90 1008.6
20260903101541 40 225 0.0 3.0 0.00 0.06 0.00 88 1008.4
20260903100033 41 225 1.0 2.0 0.00 0.06 0.00 87 1008.3
20260903094526 43 225 1.0 4.0 0.00 0.06 0.00 88 1008.2
20260903093045 43 225 2.0 3.0 0.00 0.06 0.00 87 1008.2
20260903091519 44 225 0.0 1.0 0.00 0.06 0.00 85 1008.0
20260903090017 45 225 2.0 3.0 0.00 0.06 0.00 86 1007.9
20260903084515 45 225 1.0 3.0 0.00 0.06 0.00 84 1007.9
20260903083015 46 225 3.0 5.0 0.00 0.06 0.00 83 1008.0
20260903081527 45 225 0.0 3.0 0.00 0.06 0.00 86 1007.8
20260903080010 46 225 2.0 3.0 0.00 0.06 0.00 85 1007.9
20260903074506 47 225 2.0 5.0 0.00 0.06 0.00 84 1007.9
20260903073004 48 225 1.0 5.0 0.00 0.06 0.00 86 1007.9
20260903071502 48 225 2.0 5.0 0.00 0.06 0.00 85 1007.9
20260903070104 49 225 0.0 0.0 0.00 0.06 0.00 83 1007.6
20260903064605 50 225 0.0 1.0 0.00 0.06 0.00 84 1007.7
20260903063103 49 225 0.0 3.0 0.00 0.06 0.00 85 1007.9
20260903061552 50 225 1.0 4.0 0.00 0.06 0.00 82 1008.0
20260903060050 52 225 1.0 3.0 0.00 0.06 0.00 78 1007.8
20260903054549 53 225 1.0 4.0 0.00 0.06 0.06 78 1007.8
20260903053047 53 200 4.0 6.0 0.00 0.06 0.06 78 1008.1
20260903051546 52 198 5.0 9.0 0.00 0.06 0.06 81 1008.0
20260903044557 53 225 6.0 10.0 0.00 0.06 0.06 77 1008.6
20260903043046 53 206 6.0 12.0 0.00 0.06 0.06 75 1008.6
20260903041550 52 232 6.0 10.0 0.00 0.06 0.06 78 1008.6
20260903040051 51 244 1.0 7.0 0.00 0.06 0.06 80 1008.4
20260903034543 51 209 3.0 5.0 0.00 0.06 0.06 80 1008.4
20260903033043 52 206 5.0 7.0 0.00 0.06 0.06 79 1008.4
20260903031543 53 210 4.0 7.0 0.00 0.06 0.06 77 1008.3
20260903030042 53 238 3.0 6.0 0.00 0.06 0.06 77 1008.1
20260903024541 53 235 3.0 5.0 0.00 0.06 0.06 77 1007.9
20260903023043 55 288 1.0 6.0 0.00 0.06 0.06 75 1008.1
20260903021539 56 248 2.0 14.0 0.00 0.06 0.06 73 1008.3
20260903020039 57 221 8.0 15.0 0.00 0.06 0.06 72 1008.1
20260903014538 58 240 5.0 17.0 0.00 0.06 0.06 77 1007.7
20260903013038 59 188 7.0 10.0 0.00 0.06 0.06 78 1008.1
20260903011538 58 162 6.0 9.0 0.00 0.06 0.06 80 1007.9
20260903010038 60 157 2.0 5.0 0.00 0.06 0.06 79 1007.6
20260903004545 60 14 2.0 4.0 0.00 0.06 0.06 72 1007.1
20260903003034 61 14 5.0 10.0 0.00 0.06 0.06 68 1007.4
20260903001532 60 323 1.0 6.0 0.01 0.06 0.06 67 1008.0
20260903000044 59 283 3.0 9.0 0.03 0.06 0.06 70 1008.5
20260902234534 59 224 9.0 17.0 0.06 0.06 0.06 70 1008.8
20260902233036 58 207 10.0 24.0 0.06 0.06 0.06 76 1008.9
20260902231540 58 242 18.0 30.0 0.04 0.04 0.04 74 1008.5
20260902230032 59 212 30.0 40.0 0.03 0.03 0.03 71 1007.7
20260902224531 77 161 21.0 30.0 0.00 0.00 0.00 31 1005.8
20260902223008 80 119 8.0 22.0 0.00 0.00 0.00 25 1004.1
20260902221501 80 198 7.0 11.0 0.00 0.00 0.00 32 1004.5
20260902220059 81 188 4.0 11.0 0.00 0.00 0.00 32 1004.5
20260902214619 82 212 7.0 10.0 0.00 0.00 0.00 31 1004.6
20260902213055 82 129 9.0 13.0 0.00 0.00 0.00 32 1004.8
20260902211554 82 180 7.0 10.0 0.00 0.00 0.00 32 1005.0
20260902210053 81 164 5.0 12.0 0.00 0.00 0.00 34 1005.4
20260902204545 81 138 6.0 14.0 0.00 0.00 0.00 34 1005.8
20260902203043 79 155 9.0 12.0 0.00 0.00 0.00 36 1006.0
20260902201550 78 168 5.0 12.0 0.00 0.00 0.00 37 1006.2
20260902200039 78 194 6.0 11.0 0.00 0.00 0.00 37 1006.3
20260902194543 79 201 7.0 14.0 0.00 0.00 0.00 37 1006.5
20260902193034 77 217 5.0 11.0 0.00 0.00 0.00 39 1006.6
20260902191534 77 194 7.0 13.0 0.00 0.00 0.00 38 1006.7
20260902190031 77 179 8.0 15.0 0.00 0.00 0.00 39 1006.9
20260902184529 77 200 9.0 14.0 0.00 0.00 0.00 39 1007.0
20260902183026 76 115 8.0 17.0 0.00 0.00 0.00 41 1007.2
20260902181521 75 173 8.0 16.0 0.00 0.00 0.00 43 1007.5
20260902180019 74 205 9.0 17.0 0.00 0.00 0.00 42 1007.6
20260902174523 74 156 11.0 15.0 0.00 0.00 0.00 44 1007.8
20260902173012 72 188 10.0 16.0 0.00 0.00 0.00 47 1008.0
20260902171511 71 200 8.0 12.0 0.00 0.00 0.00 48 1008.1
20260902170008 71 184 9.0 13.0 0.00 0.00 0.00 49 1007.9
20260902164514 70 215 9.0 12.0 0.00 0.00 0.00 48 1007.9
20260902163009 71 205 7.0 11.0 0.00 0.00 0.00 48 1007.9
20260902161515 70 210 6.0 12.0 0.00 0.00 0.00 48 1007.9